This is the latest recevied weather packets stored in our database for station/object KK6MIG-13. If no packets are shown the sender has not sent any weather packets the latest 1 day(s).
| Time | Temp. | Humidity | Pressure | Rain* | Wind** | Luminosity | Snow |
|---|---|---|---|---|---|---|---|
| 1777995321 | 12.22° C | 1% | 1014 hPa | 0 mm | 2.24 m/s, 280° | 86 W/m² | - |
| 1777995261 | 12.22° C | 1% | 1014 hPa | 0 mm | 2.24 m/s, 279° | 81 W/m² | - |
| 1777995200 | 12.22° C | 1% | 1014 hPa | 0 mm | 2.24 m/s, 291° | 79 W/m² | - |
| 1777995140 | 12.22° C | 1% | 1014 hPa | 0 mm | 2.24 m/s, 253° | 77 W/m² | - |
| 1777995080 | 12.22° C | 1% | 1013.9 hPa | 0 mm | 2.24 m/s, 277° | 76 W/m² | - |
| 1777995014 | 12.22° C | 1% | 1013.9 hPa | 0 mm | 2.24 m/s, 284° | 76 W/m² | - |
| 1777994954 | 12.22° C | 1% | 1013.9 hPa | 0 mm | 2.24 m/s, 337° | 76 W/m² | - |
| 1777994894 | 12.22° C | 1% | 1013.9 hPa | 0 mm | 2.68 m/s, 261° | 74 W/m² | - |
| 1777994834 | 12.22° C | 1% | 1013.9 hPa | 0 mm | 2.68 m/s, 279° | 74 W/m² | - |
| 1777994774 | 12.22° C | 1% | 1013.9 hPa | 0 mm | 2.68 m/s, 268° | 67 W/m² | - |
| 1777994708 | 12.22° C | 1% | 1013.9 hPa | 0 mm | 2.68 m/s, 265° | 62 W/m² | - |
| 1777994648 | 12.22° C | 1% | 1013.9 hPa | 0 mm | 2.68 m/s, 277° | 60 W/m² | - |
| 1777994588 | 12.22° C | 1% | 1013.9 hPa | 0 mm | 2.24 m/s, 267° | 58 W/m² | - |
| 1777994529 | 12.22° C | 1% | 1013.9 hPa | 0 mm | 2.24 m/s, 290° | 60 W/m² | - |
| 1777994492 | 12.22° C | 1% | 1014 hPa | 0 mm | 2.24 m/s, 273° | 62 W/m² | - |
| 1777994487 | 12.22° C | 1% | 1013.9 hPa | 0 mm | 2.24 m/s, 248° | 60 W/m² | - |
| 1777994354 | 12.22° C | 1% | 1013.9 hPa | 0 mm | 2.68 m/s, 240° | 56 W/m² | - |
| 1777994350 | 12.22° C | 1% | 1014 hPa | 0 mm | 2.68 m/s, 273° | 58 W/m² | - |
| 1777994162 | 12.22° C | 1% | 1014 hPa | 0 mm | 3.13 m/s, 241° | 53 W/m² | - |
| 1777994096 | 12.22° C | 1% | 1013.9 hPa | 0 mm | 3.13 m/s, 272° | 46 W/m² | - |
| 1777994036 | 12.22° C | 1% | 1013.9 hPa | 0 mm | 3.58 m/s, 269° | 46 W/m² | - |
| 1777994008 | 12.22° C | 1% | 1013.9 hPa | 0 mm | 3.58 m/s, 273° | 40 W/m² | - |
| 1777994004 | 12.22° C | 1% | 1013.9 hPa | 0 mm | 3.58 m/s, 254° | 37 W/m² | - |
| 1777994000 | 12.22° C | 1% | 1013.9 hPa | 0 mm | 3.58 m/s, 271° | 33 W/m² | - |
| 1777993996 | 12.22° C | 1% | 1013.9 hPa | 0 mm | 3.58 m/s, 271° | 44 W/m² | - |
* Rain latest hour (hover to see other rain measurements)
** Current wind speed in m/s (hover to see current wind gust speed)